This is the latest recevied weather packets stored in our database for station/object KC1ELF. If no packets are shown the sender has not sent any weather packets the latest 10 day(s).
| Time | Temp. | Humidity | Pressure | Rain* | Wind** | Luminosity | Snow |
|---|---|---|---|---|---|---|---|
| 1777929096 | 22.78° C | 31% | 1005.7 hPa | 0 mm | - | - | - |
| 1777928497 | 23.33° C | 32% | 1005.7 hPa | 0 mm | - | - | - |
| 1777927896 | 22.78° C | 32% | 1005.6 hPa | 0 mm | - | - | - |
| 1777927296 | 22.78° C | 31% | 1005.5 hPa | 0 mm | - | - | - |
| 1777926698 | 22.78° C | 31% | 1005.3 hPa | 0 mm | - | - | - |
| 1777926096 | 22.78° C | 31% | 1005.5 hPa | 0 mm | - | - | - |
| 1777925497 | 22.78° C | 30% | 1005.5 hPa | 0 mm | - | - | - |
| 1777924895 | 22.22° C | 30% | 1005.7 hPa | 0 mm | - | - | - |
| 1777924296 | 23.33° C | 29% | 1005.7 hPa | 0 mm | - | - | - |
| 1777923695 | 23.33° C | 29% | 1005.7 hPa | 0 mm | - | - | - |
| 1777923097 | 23.89° C | 29% | 1005.7 hPa | 0 mm | - | - | - |
| 1777922496 | 24.44° C | 28% | 1005.7 hPa | 0 mm | - | - | - |
| 1777921895 | 25° C | 28% | 1005.6 hPa | 0 mm | - | - | - |
| 1777921296 | 25.56° C | 27% | 1005.9 hPa | 0 mm | - | - | - |
| 1777920696 | 24.44° C | 28% | 1005.9 hPa | 0 mm | - | - | - |
| 1777920097 | 23.89° C | 29% | 1006 hPa | 0 mm | - | - | - |
| 1777919496 | 22.78° C | 30% | 1006.2 hPa | 0 mm | - | - | - |
| 1777918896 | 23.33° C | 29% | 1006.1 hPa | 0 mm | - | - | - |
| 1777918296 | 23.89° C | 28% | 1006.3 hPa | 0 mm | - | - | - |
| 1777917696 | 25° C | 27% | 1006.3 hPa | 0 mm | - | - | - |
| 1777917096 | 24.44° C | 30% | 1006.3 hPa | 0 mm | - | - | - |
| 1777916496 | 23.89° C | 30% | 1006.4 hPa | 0 mm | - | - | - |
| 1777915896 | 23.33° C | 31% | 1006.5 hPa | 0 mm | - | - | - |
| 1777915296 | 22.22° C | 33% | 1006.5 hPa | 0 mm | - | - | - |
| 1777914695 | 21.67° C | 33% | 1006.6 hPa | 0 mm | - | - | - |
* Rain latest hour (hover to see other rain measurements)
** Current wind speed in m/s (hover to see current wind gust speed)